Location: Oulou
(10.7667°N, 12.5167°W)
Time: 13:52:44
(UTC+00:00)

BLOCK DM-SL R/B - Pass Details

Date: 20 September 2019
Orbit: 229 x 28042 km, 0.4° (Epoch: 17 October)

Event Time Altitude Azimuth Distance (km) Brightness Sun altitude
Rises 14:15:09 0° 266° (W) 15,179 8.9 65.3°
Reaches altitude 10° 14:28:55 10° 264° (W) 17,081 9.4 62.1°
Maximum altitude 21:17:30 55° 195° (SSW) 3,130 4.9 -37.5°
Enters shadow 21:19:45 50° 164° (SSE) 2,672 4.4 -38.0°
